Regional Weather Roundup
Issued by NWS Kansas City/Pleasant Hill, MO

Home | Current Version | Previous Version | Graphics & Text | Print | Product List | Glossary Off
Versions: 1 2 3 4 5 6 7 8 9 10 11 12 13 14 15 16 17 18 19 20 21 22 23 24 25 26 27 28 29 30 31 32 33 34 35 36 37 38 39 40 41 42 43 44 45 46 47 48 49 50

000
ASUS43 KEAX 270604
RWREAX

WEATHER ROUNDUP FOR EASTERN KANSAS AND NORTHWEST MISSOURI
NATIONAL WEATHER SERVICE KANSAS CITY/PLEASANT HILL MO
1200 AM CST FRI FEB 27 2015

KSZ040-057-103>105-MOZ028-029-037-043-270700-
...KANSAS CITY METROPOLITAN AREA...

CITY           SKY/WX    TMP DP  RH WIND       PRES   REMARKS
K.C. INTL      CLEAR      4  -3  73 N7        30.58R WCI  -8
6HR MIN TEMP:   4; 6HR MAX TEMP:  14;

K.C. DOWNTOWN  CLEAR      8  -3  61 N12       30.61R WCI  -7
6HR MIN TEMP:   8; 6HR MAX TEMP:  18;

LEES SUMMIT    CLEAR      7  -3  64 N12       30.57  WCI  -8
6HR MIN TEMP:   7; 6HR MAX TEMP:  17;

OLATHE - IXD   FAIR       6  -3  66 N10       30.58R WCI  -9
6HR MIN TEMP:   6; 6HR MAX TEMP:  16;

OLATHE - OJC   CLEAR      8  -3  61 N10       30.56R WCI  -6
6HR MIN TEMP:   8; 6HR MAX TEMP:  18;

LAWRENCE       CLEAR      5  -2  72 N3        30.61R

$$

MOZ001>008-011>017-020>025-030>033-038>040-044>046-053-054-270700-
...NORTHERN AND CENTRAL MISSOURI...

CITY           SKY/WX    TMP DP  RH WIND       PRES   REMARKS
ST. JOSEPH     CLEAR      2  -4  76 N6        30.62S WCI  -9
6HR MIN TEMP:   2; 6HR MAX TEMP:  13;

MOSBY          CLEAR      9   0  66 N10       30.61R WCI  -6
WARRENSBURG    CLEAR      9   1  72 N7        30.59R WCI  -3
WHITEMAN AFB   NOT AVBL
CLINTON        CLEAR     12   3  67 N9        30.58R WCI   0
SEDALIA        CLEAR      9   0  67 N9        30.57R WCI  -4
6HR MIN TEMP:   9; 6HR MAX TEMP:  17;

WARSAW         NOT AVBL
MARSHALL       CLEAR     10   1  67 N10       30.58S WCI  -3
CHILLICOTHE      N/A      4  -4  69 CALM      30.61R
6HR MIN TEMP:   4; 6HR MAX TEMP:  13;

MOBERLY        CLEAR      5  -4  66 N3        30.57R
KIRKSVILLE     CLEAR     -1  -5  82 W3        30.55R
6HR MIN TEMP:  -1; 6HR MAX TEMP:  10;


$$

MOZ041-047>049-056>058-063>065-088>090-097-270700-
...EASTERN AND SOUTHERN MISSOURI...

CITY           SKY/WX    TMP DP  RH WIND       PRES   REMARKS
ST. LOUIS INTL PTCLDY     9  -2  61 N9        30.54R WCI  -4
6HR MIN TEMP:   9; 6HR MAX TEMP:  20;

SPIRIT OF STL  CLEAR      9  -2  61 N7        30.55R WCI  -2
COLUMBIA       CLEAR      7  -1  70 N9        30.55R WCI  -7
JEFFERSON CITY CLEAR     10  -2  58 N7        30.58R WCI  -1
MEXICO         CLEAR      7   1  78 N10       30.54S WCI  -8
HANNIBAL       CLEAR      0  -9  65 NW5       30.55S WCI -10
ROLLA          CLEAR      8  -1  66 N9        30.48R WCI  -5
OSAGE BEACH    CLEAR     10   0  61 N3        30.52S
SPRINGFIELD    CLEAR     13   2  61 N12       30.48R WCI  -1
NEVADA         CLEAR     12   1  62 N13       30.57S WCI  -3
JOPLIN         PTCLDY    15   4  61 N12       30.53R WCI   2
WEST PLAINS    CLEAR     14   3  61 N9        30.45R WCI   2

$$

IAZ060-094-KSZ022-034>040-054-083-096-NEZ052-066-093-270700-
...KANSAS...SOUTHEAST NEBRASKA AND IOWA...

CITY           SKY/WX    TMP DP  RH WIND       PRES   REMARKS
TOPEKA         CLEAR      7  -1  70 N5        30.61S WCI  -2
6HR MIN TEMP:   7; 6HR MAX TEMP:  18;

MANHATTAN      CLEAR      7   1  76 CALM      30.59
EMPORIA        CLEAR      8   0  69 N10       30.55S WCI  -6
CHANUTE        PTCLDY    13   1  59 N12       30.55F WCI  -1
WICHITA        CLEAR     14   0  53 NE13      30.54R WCI   0
OMAHA          CLEAR      2  -3  80 N3        30.59S
LINCOLN        CLEAR      1  -4  79 N6        30.59S WCI -10
FALLS CITY     CLEAR      4  -4  69 CALM      30.60R
LAMONI         CLEAR     -1  -7  75 NW7       30.54S WCI -14
DES MOINES     CLEAR     -1  -8  72 NW5       30.56S WCI -11

$$



USA.gov is the U.S. government's official web portal to all federal, state and local government web resources and services.